Regional Weather Roundup
Issued by NWS

Home | Current Version | Previous Version | Graphics & Text | Print | Product List | Glossary On
Versions: 1 2 3 4 5 6 7 8 9 10 11 12 13 14 15 16 17 18 19 20 21 22 23 24 25 26 27 28 29 30 31 32 33 34 35 36 37 38 39 40 41 42 43 44 45 46 47 48 49 50
000
ASUS43 KFSD 241702
RWRSD

WEATHER ROUNDUP FOR SOUTH DAKOTA
NATIONAL WEATHER SERVICE SIOUX FALLS SD
1200 PM CDT FRI MAR 24 2017

NOTE: "FAIR" INDICATES FEW OR NO CLOUDS BELOW 12,000 FEET WITH NO
SIGNIFICANT WEATHER AND/OR OBSTRUCTIONS TO VISIBILITY.


SDZ001>005-009-010-012>017-241800-
NORTHWEST AND NORTH CENTRAL SOUTH DAKOTA

CITY           SKY/WX    TMP DP  RH WIND       PRES   REMARKS
BUFFALO          N/A     53  41  63 E3        30.06R
FAITH            N/A     50  41  71 N5        30.11R
MOBRIDGE       SUNNY     48  32  53 N10       30.12R
$$

SDZ012>016-024>037-041>051-057-063-072>074-241800-
SOUTHWEST AND SOUTH CENTRAL SOUTH DAKOTA

CITY           SKY/WX    TMP DP  RH WIND       PRES   REMARKS
RAPID CTY ARPT SUNNY     55  37  50 N12       30.11S
PIERRE         MOSUNNY   49  35  58 N9        30.11R
CUSTER         SUNNY     49  24  37 VRB7      30.12R
ELLSWORTH AFB  SUNNY     54  38  54 N10       30.10S
PHILIP         MOSUNNY   56  39  53 CALM      30.11R
PINE RIDGE     SUNNY     51  37  58 NE12      30.11S
SPEARFISH      FAIR      50  34  53 VRB6G12   30.15R
WINNER         CLOUDY    49  36  61 N14G22    30.08S
$$

SDZ004>011-016>023-039-040-241800-
NORTHEAST SOUTH DAKOTA

CITY           SKY/WX    TMP DP  RH WIND       PRES   REMARKS
ABERDEEN       CLOUDY    37  30  75 NE13G23   30.15R
WATERTOWN      CLOUDY    35  34  96 N16       30.07S FOG     WCI  25
BROOKINGS      CLOUDY    38  34  85 N17       30.01F
SISSETON         N/A     38  35  89 N20       30.13R
$$

SDZ017-020-022-023-036>040-048>070-241800-
SOUTHEAST SOUTH DAKOTA

CITY           SKY/WX    TMP DP  RH WIND       PRES   REMARKS
SIOUX FALLS    CLOUDY    41  37  86 NE17      30.03R
HURON          CLOUDY    39  36  89 N18       30.09S
CHAMBERLAIN    PTSUNNY   46  38  73 NW13      30.07F
MITCHELL       CLOUDY    44  37  76 N18       30.06R
YANKTON        CLOUDY    39  36  87 N16       30.04R
$$

ABBREVIATIONS USED IN REMARKS
   TC - TEMPERATURE IN CELSIUS
  WCI - WIND CHILL INDEX
   HX - HEAT INDEX
  VSB - VISIBILITY




USA.gov is the U.S. government's official web portal to all federal, state and local government web resources and services.